星链-36448(STARLINK-36448)

导读

STARLINK-36448是美国SpaceX星链星座的一颗卫星,于2026年1月9日发射升空,隶属于美国太空探索技术公司打造的星链互联网卫星星座项目。该卫星旨在为全球范围内提供低延迟、高速率的卫星互联网服务,覆盖偏远地区与网络基础设施薄弱区域,推动全球互联网络覆盖进一步拓展。

基本信息
目录编号:
67354
目录名称:
STARLINK-36448
国际标识:
2026-003W
轨道中心:
EARTH
卫星名称:
星链-36448
卫星全名:
星链-36448(STARLINK-36448)
卫星状态:
在轨 (已飞行239 天)
发射日期:
2026-01-09 UTC
国别 :
美国 (US)
星等 :
--
轨道信息
数据来源 国际轨道数据
星历时间: 2026-09-05T12:17:14+0800
13小时前
查看轨道信息
半长轴: 6861.275km
偏心率: 0.0000915
轨道倾角: 43.001°
近地点辐角 266.641°
升交点赤经 293.473°
平近点角 93.434°
近地点: 482.51km
远地点: 483.766km
周期: 94.269分钟
每日圈数: 15.275505
详细信息
固有亮度:
5
最大亮度:
2.5
卫星平台:
Starlink V1.0
覆盖范围:
全球
运营商:
太空探索技术公司
运营商所在国:
美国
制造商(研发单位):
太空探索技术公司
制造商所在国:
美国
使用方式:
暂无
卫星简介
Starlink 计划是 SpaceX 推出的全球卫星互联网项目,通过发射低轨道卫星,为全球尤其是偏远地区提供高速、低延迟的互联网服务。自 2019 年起,Starlink 已部署数千颗卫星,旨在缩小全球数字鸿沟,推动互联网普及。该项目还为军事、航空等行业提供通信支持,带来广泛经济效益。
2D轨道图
3D轨道图
轨道高度分析图
轨道倾角分析图
轨道综合分析图
查看轨道综合分析图
交会数据列表
事件ID 空间交会对象 最接近时刻(TCA) 交会距离 交会风险概率(CRP) 交会风险指数(CRI) 操作
CDM_260906-150205-813706-735421
2026-09-06T
15:02:15+0000
0.149 km
中距离
8.354633E-4 高风险 0.93
CDM_260907-004205-788306-735421
2026-09-07T
00:42:58+0000
0.807 km
远距离
2.633089E-5 中风险 0.63
CDM_260906-212805-977406-735421
OBJECT B (59774)
2026-09-06T
21:28:59+0000
1.036 km
极远距离
2.039003E-5 中风险 0.61
CDM_260907-055605-813706-735421
2026-09-07T
05:56:46+0000
1.097 km
极远距离
1.236416E-5 中风险 0.57
CDM_260908-012606-284506-735421
2026-09-08T
01:26:10+0000
1.362 km
极远距离
7.042289E-6 低风险 0.52
CDM_260907-042205-813706-735421
2026-09-07T
04:22:36+0000
1.355 km
极远距离
5.986126E-6 低风险 0.51
CDM_260906-191305-788306-735421
2026-09-06T
19:13:25+0000
1.256 km
极远距离
5.803031E-6 低风险 0.5
CDM_260906-204705-788306-735421
2026-09-06T
20:47:35+0000
1.314 km
极远距离
4.99034E-6 低风险 0.49
CDM_260907-021705-788306-735421
2026-09-07T
02:17:08+0000
1.479 km
极远距离
3.404974E-6 低风险 0.46
CDM_260906-163605-813706-735421
2026-09-06T
16:36:24+0000
1.744 km
极远距离
2.722464E-6 低风险 0.44